This is the latest recevied weather packets stored in our database for station/object KJ4EWA. If no packets are shown the sender has not sent any weather packets the latest 10 day(s).
| Time | Temp. | Humidity | Pressure | Rain* | Wind** | Luminosity | Snow |
|---|---|---|---|---|---|---|---|
| 1778208822 | 20.56° C | 99% | 1018 hPa | 0 mm | - | 0 W/m² | - |
| 1778208519 | 20.56° C | 99% | 1018.2 hPa | 0 mm | - | 0 W/m² | - |
| 1778208215 | 21.11° C | 99% | 1017.8 hPa | 0 mm | - | 0 W/m² | - |
| 1778207912 | 21.11° C | 99% | 1017.8 hPa | 0 mm | - | 0 W/m² | - |
| 1778207609 | 21.11° C | 99% | 1017.8 hPa | 0 mm | - | 0 W/m² | - |
| 1778207306 | 21.11° C | 99% | 1017.7 hPa | 0 mm | - | 0 W/m² | - |
| 1778207001 | 21.11° C | 99% | 1017.5 hPa | 0 mm | - | 0 W/m² | - |
| 1778206699 | 21.67° C | 99% | 1017.7 hPa | 0 mm | - | 0 W/m² | - |
| 1778206394 | 21.11° C | 99% | 1017.5 hPa | 0 mm | - | 0 W/m² | - |
| 1778206091 | 21.67° C | 99% | 1017.5 hPa | 0 mm | - | 0 W/m² | - |
| 1778205789 | 21.67° C | 99% | 1017.2 hPa | 0 mm | - | 0 W/m² | - |
| 1778205485 | 21.67° C | 99% | 1017 hPa | 0 mm | - | 0 W/m² | - |
| 1778205183 | 21.67° C | 99% | 1017.1 hPa | 0 mm | - | 0 W/m² | - |
| 1778204879 | 21.67° C | 99% | 1016.6 hPa | 0 mm | - | 0 W/m² | - |
| 1778204577 | 21.67° C | 99% | 1016.4 hPa | 0 mm | - | 0 W/m² | - |
| 1778204272 | 22.22° C | 99% | 1016.3 hPa | 0 mm | - | 0 W/m² | - |
| 1778203969 | 21.67° C | 99% | 1016.2 hPa | 0 mm | - | 0 W/m² | - |
| 1778203666 | 22.22° C | 99% | 1016.4 hPa | 0 mm | - | 0 W/m² | - |
| 1778203363 | 22.22° C | 99% | 1016.4 hPa | 0 mm | - | 0 W/m² | - |
| 1778203061 | 22.22° C | 99% | 1016.3 hPa | 0 mm | - | 0 W/m² | - |
| 1778202758 | 22.22° C | 99% | 1016.5 hPa | 0 mm | - | 0 W/m² | - |
| 1778202455 | 22.22° C | 99% | 1016.3 hPa | 0 mm | - | 0 W/m² | - |
| 1778202153 | 22.22° C | 99% | 1016.7 hPa | 0 mm | - | 0 W/m² | - |
| 1778201850 | 22.78° C | 99% | 1016.5 hPa | 0 mm | - | 0 W/m² | - |
| 1778201547 | 22.78° C | 99% | 1016.4 hPa | 0 mm | - | 0 W/m² | - |
* Rain latest hour (hover to see other rain measurements)
** Current wind speed in m/s (hover to see current wind gust speed)